Regional Weather Roundup
Issued by NWS Sterling, VA

Home | Current Version | Previous Version | Graphics & Text | Print | Product List | Glossary On
Versions: 1 2 3 4 5 6 7 8 9 10 11 12 13 14 15 16 17 18 19 20 21 22 23 24 25 26
000
ASUS41 KLWX 260310
RWRLWX

REGIONAL WEATHER ROUNDUP
NATIONAL WEATHER SERVICE BALTIMORE MD/WASHINGTON DC
1100 PM EDT SUN SEP 25 2016

Note: "FAIR" indicates few or no clouds below 12,000 feet
with no significant weather and/or obstructions to visibility.
 TC=TEMPERATURE CELSIUS

 * =Non NWS site. Station does not report precipitation (e.g. rain,
    snow, etc.), thunder, or fog.

DCZ001-MDZ009-015-VAZ040>042-051-053>054-260400-
WASHINGTON METRO

CITY           SKY/WX    TMP DP  RH WIND       PRES   REMARKS
WASHINGTON NAT CLOUDY    64  51  62 S7        30.18S
DULLES         CLOUDY    62  54  74 SE3       30.18R
ANDREWS AFB    CLOUDY    60  50  69 CALM      30.17S
FT BELVOIR     CLOUDY    58  55  91 CALM      30.18R
QUANTICO         N/A     64  57  78 SE6       30.18S
COLLEGE PARK*  CLOUDY    54  50  87 CALM      30.18S
LEESBURG*      CLOUDY    61  57  88 CALM      30.19S
MANASSAS*      CLOUDY    57  55  94 CALM      30.18S
GAITHERSBURG*  CLOUDY    55  46  71 CALM      30.22S

$$

MDZ006>007-011-014-260400-
BALTIMORE METRO

CITY           SKY/WX    TMP DP  RH WIND       PRES   REMARKS
BWI AIRPORT    PTCLDY    56  49  77 CALM      30.18S
MD SCIENCE CTR   N/A     65  46  50 MISG      30.19R
ANNAPOLIS      CLEAR     62  58  86 CALM      30.18R
FORT MEADE*    PTCLDY    50  50 100 CALM      30.21S

$$

MDZ012-015-019>023-260400-
MARYLAND EASTERN SHORE

CITY           SKY/WX    TMP DP  RH WIND       PRES   REMARKS
OCEAN CITY     CLEAR     55  53  93 CALM      30.19S
SALISBURY      CLEAR     55  53  93 CALM      30.18S
BAY BRIDGE AP* CLEAR     61  54  77 MISG      30.18S
CAMBRIDGE*     PTCLDY    54  52  94 CALM      30.18S

$$

MDZ017>025-260400-
SOUTHERN MARYLAND

CITY           SKY/WX    TMP DP  RH WIND       PRES   REMARKS
PATUXENT RIVER CLEAR     59  52  77 E6        30.17F
ST INIGOES     MOCLDY    57  54  89 CALM      30.17S
LEONARDTOWN*   CLOUDY    55  52  88 CALM      30.19S

$$

MDZ003>005-260400-
NORTH CENTRAL MARYLAND

CITY           SKY/WX    TMP DP  RH WIND       PRES   REMARKS
FREDERICK*     NOT AVBL
HAGERSTOWN APT CLOUDY    61  49  64 E5        30.16F

$$

MDZ501>502-260400-
WESTERN MARYLAND

CITY           SKY/WX    TMP DP  RH WIND       PRES   REMARKS
OAKLAND*       CLEAR     54  45  71 SE8       30.18S
CUMBERLAND*    CLEAR     59  54  82 N3        30.19S

$$

VAZ025>031-260400-
SHENANDOAH VALLEY

CITY           SKY/WX    TMP DP  RH WIND       PRES   REMARKS
WINCHESTER*    CLOUDY    54  52  94 CALM      30.16F
FRONT ROYAL*   FAIR      54  54 100 CALM      30.15F
LURAY*         CLOUDY    63  63 100 CALM      30.16F
NEW MARKET*    CLOUDY   N/A N/A N/A CALM      30.15F
STAUNTON*      CLOUDY    63  59  88 CALM      30.19S
WAYNESBORO*    CLOUDY    63  58  86 S7        30.18S

$$

WVZ021-048>050-054>055-260400-
EASTERN WEST VIRGINIA PANHANDLE

CITY           SKY/WX    TMP DP  RH WIND       PRES   REMARKS
MARTINSBURG    CLOUDY    54  52  93 CALM      30.15F
PETERSBURG*    PTCLDY    59  53  81 CALM      30.15S

$$

VAZ036>039-050-260400-
CENTRAL FOOTHILLS

CITY           SKY/WX    TMP DP  RH WIND       PRES   REMARKS
CHARLOTTESVILL CLOUDY    64  58  80 CALM      30.18R
CULPEPER*      CLOUDY    60  58  93 CALM      30.19S
ORANGE*          N/A     63  63 100 CALM      30.19F
GORDONSVILLE*  CLOUDY    63  61  94 CALM      30.17S
WARRENTON*     CLOUDY    61  54  79 CALM      30.18R

$$

VAZ055>057-260400-
NORTH AND CENTRAL PIEDMONT

CITY           SKY/WX    TMP DP  RH WIND       PRES   REMARKS
FREDERICKSBRG* CLOUDY    63  63 100 CALM      30.17S
STAFFORD*      CLOUDY    58  58 100 CALM      30.21S

$$

NCZ024-NYZ072-PAZ021-071-VAZ022-071-260400-
OTHER REGIONAL OBSERVATIONS

CITY           SKY/WX    TMP DP  RH WIND       PRES   REMARKS
NEW YORK CITY  CLEAR     61  38  42 NE6       30.22R
PHILADELPHIA   CLEAR     59  49  69 E3        30.18S
PITTSBURGH     MOCLDY    63  47  55 CALM      30.08F
ROANOKE        CLOUDY    66  63  90 SE7       30.19F
RICHMOND       MOCLDY    64  56  75 SE5       30.17R
RALEIGH        CLOUDY    69  64  84 SE5       30.16S

$$

ANZ530>537-260400-
MARINE OBSERVATIONS

STATION/POSITION TIME  TEMP    WIND        PRES
                       AIR SEA DIR/SP/G
                 (UTC) (F)     (DEG/KT/KT) (MB)
THOMAS PT LIGHT  0300   67 75  130/ 11/ 11 1023.2S
BALT KEY BRIDGE  0248   65     230/  6/  6 1021.9R
COVE POINT       0248   67     140/ 11/ 14 1022.3F
LEWISETTA        0248   67 75  240/  4/  5 1021.3R
SOLOMONS ISLAND  0242   67 76   40/  6/  7   N/A
PINEY POINT      0242           70/  2/  3   N/A

$$





USA.gov is the U.S. government's official web portal to all federal, state and local government web resources and services.